• In Belarus
  • List of Countries
  • For 7 days
  • Water Temperature
  • Weather Map
  • Weather Widgets
  • user-avatar
    Login

    Hourly Weather Cochabamba

    Today, 20 September, Friday

    Time Temperature Precipitation Wind Pressure Humidity
    00:00 +18°C° 0 mm 1 mps 554 mmHg 66%
    01:00 +16°C° 0 mm 1 mps 554 mmHg 64%
    02:00 +16°C° 0 mm 1 mps 554 mmHg 62%
    03:00 +15°C° 0 mm 1 mps 553 mmHg 61%
    04:00 +15°C° 0 mm 1 mps 553 mmHg 60%
    05:00 +14°C° 0 mm 1 mps 553 mmHg 60%
    06:00 +15°C° 0 mm 1 mps 554 mmHg 60%
    07:00 +16°C° 0 mm 1 mps 555 mmHg 60%
    08:00 +18°C° 0 mm 1 mps 556 mmHg 60%
    09:00 +19°C° 0 mm 1 mps 557 mmHg 56%
    10:00 +21°C° 0 mm 1 mps 558 mmHg 52%
    11:00 +22°C° 0 mm 1 mps 558 mmHg 48%
    12:00 +23°C° 0 mm 2 mps 558 mmHg 47%
    13:00 +24°C° 0 mm 2 mps 558 mmHg 46%
    14:00 +24°C° 0 mm 2 mps 557 mmHg 44%
    15:00 +24°C° 0.2 mm 2 mps 557 mmHg 47%
    16:00 +24°C° 0.2 mm 3 mps 556 mmHg 50%
    17:00 +22°C° 0.2 mm 4 mps 556 mmHg 53%
    18:00 +21°C° 0 mm 3 mps 556 mmHg 58%
    19:00 +20°C° 0 mm 3 mps 556 mmHg 63%
    20:00 +19°C° 0 mm 3 mps 556 mmHg 68%
    21:00 +18°C° 0 mm 3 mps 556 mmHg 70%
    22:00 +18°C° 0 mm 2 mps 556 mmHg 71%
    23:00 +18°C° 0 mm 2 mps 556 mmHg 73%

    Tomorrow, 21 September, Saturday

    Time Temperature Precipitation Wind Pressure Humidity
    00:00 +17°C° 0 mm 2 mps 556 mmHg 73%
    01:00 +17°C° 0 mm 2 mps 555 mmHg 74%
    02:00 +16°C° 0 mm 2 mps 555 mmHg 74%
    03:00 +16°C° 0 mm 2 mps 555 mmHg 76%
    04:00 +16°C° 0 mm 1 mps 555 mmHg 77%
    05:00 +16°C° 0 mm 1 mps 555 mmHg 79%
    06:00 +16°C° 0 mm 1 mps 556 mmHg 76%
    07:00 +18°C° 0 mm 1 mps 556 mmHg 74%
    08:00 +18°C° 0 mm 1 mps 557 mmHg 71%
    09:00 +20°C° 0.1 mm 1 mps 558 mmHg 66%
    10:00 +21°C° 0.1 mm 1 mps 558 mmHg 61%
    11:00 +22°C° 0.1 mm 1 mps 559 mmHg 56%
    12:00 +23°C° 0.4 mm 2 mps 558 mmHg 56%
    13:00 +22°C° 0.4 mm 3 mps 558 mmHg 56%
    14:00 +22°C° 0.4 mm 4 mps 557 mmHg 56%
    15:00 +22°C° 0.1 mm 4 mps 557 mmHg 57%
    16:00 +21°C° 0.1 mm 3 mps 557 mmHg 58%
    17:00 +21°C° 0.1 mm 3 mps 556 mmHg 59%
    18:00 +20°C° 0.1 mm 3 mps 556 mmHg 63%
    19:00 +19°C° 0.1 mm 2 mps 556 mmHg 68%
    20:00 +18°C° 0.1 mm 2 mps 556 mmHg 72%
    21:00 +18°C° 0 mm 2 mps 556 mmHg 74%
    22:00 +17°C° 0 mm 2 mps 556 mmHg 76%
    23:00 +17°C° 0 mm 2 mps 557 mmHg 78%

    Day after tomorrow, 22 September, Sunday

    Time Temperature Precipitation Wind Pressure Humidity
    00:00 +18°C° 0 mm 1 mps 556 mmHg 78%
    01:00 +16°C° 0 mm 1 mps 556 mmHg 78%
    02:00 +16°C° 0 mm 1 mps 556 mmHg 78%
    03:00 +16°C° 0 mm 1 mps 556 mmHg 78%
    04:00 +15°C° 0 mm 1 mps 556 mmHg 78%
    05:00 +15°C° 0 mm 1 mps 556 mmHg 78%
    06:00 +16°C° 0 mm 1 mps 556 mmHg 75%
    07:00 +16°C° 0 mm 1 mps 557 mmHg 71%
    08:00 +18°C° 0 mm 1 mps 558 mmHg 68%
    09:00 +19°C° 0 mm 1 mps 559 mmHg 64%
    10:00 +21°C° 0 mm 1 mps 559 mmHg 60%
    11:00 +22°C° 0 mm 1 mps 560 mmHg 56%
    12:00 +23°C° 0.2 mm 2 mps 559 mmHg 55%
    13:00 +23°C° 0.2 mm 2 mps 559 mmHg 54%
    14:00 +23°C° 0.2 mm 2 mps 558 mmHg 53%
    15:00 +23°C° 0.1 mm 2 mps 558 mmHg 55%
    16:00 +21°C° 0.1 mm 3 mps 558 mmHg 56%
    17:00 +21°C° 0.1 mm 3 mps 557 mmHg 58%
    18:00 +20°C° 0 mm 3 mps 557 mmHg 62%
    19:00 +19°C° 0 mm 2 mps 557 mmHg 66%
    20:00 +18°C° 0 mm 2 mps 557 mmHg 70%
    21:00 +18°C° 0 mm 2 mps 557 mmHg 72%
    22:00 +18°C° 0 mm 1 mps 557 mmHg 74%
    23:00 +18°C° 0 mm 1 mps 557 mmHg 76%

    23 September, Monday

    Time Temperature Precipitation Wind Pressure Humidity
    00:00 +16°C° 0 mm 1 mps 557 mmHg 77%
    01:00 +16°C° 0 mm 1 mps 557 mmHg 79%
    02:00 +15°C° 0 mm 0 mps 556 mmHg 80%
    03:00 +14°C° 0 mm 0 mps 556 mmHg 81%
    04:00 +14°C° 0 mm 0 mps 556 mmHg 81%
    05:00 +14°C° 0 mm 0 mps 556 mmHg 82%
    06:00 +15°C° 0 mm 1 mps 557 mmHg 77%
    07:00 +16°C° 0 mm 1 mps 557 mmHg 72%
    08:00 +18°C° 0 mm 1 mps 558 mmHg 67%
    09:00 +20°C° 0 mm 1 mps 559 mmHg 59%
    10:00 +21°C° 0 mm 1 mps 559 mmHg 51%
    11:00 +23°C° 0 mm 2 mps 560 mmHg 43%
    12:00 +24°C° 0 mm 2 mps 560 mmHg 42%
    13:00 +24°C° 0 mm 2 mps 559 mmHg 42%
    14:00 +25°C° 0 mm 3 mps 559 mmHg 41%
    15:00 +25°C° 0 mm 3 mps 558 mmHg 44%
    16:00 +24°C° 0 mm 3 mps 558 mmHg 48%
    17:00 +23°C° 0 mm 4 mps 557 mmHg 51%
    18:00 +21°C° 0 mm 3 mps 557 mmHg 56%
    19:00 +20°C° 0 mm 2 mps 557 mmHg 61%
    20:00 +19°C° 0 mm 2 mps 557 mmHg 66%
    21:00 +18°C° 0 mm 2 mps 557 mmHg 68%
    22:00 +19°C° 0 mm 1 mps 557 mmHg 69%
    23:00 +18°C° 0 mm 1 mps 557 mmHg 70%

    24 September, Tuesday

    Time Temperature Precipitation Wind Pressure Humidity
    00:00 +18°C° 0 mm 1 mps 557 mmHg 71%
    01:00 +18°C° 0 mm 1 mps 557 mmHg 72%
    02:00 +16°C° 0 mm 1 mps 557 mmHg 73%
    03:00 +16°C° 0.1 mm 1 mps 557 mmHg 74%
    04:00 +15°C° 0.1 mm 1 mps 557 mmHg 75%
    05:00 +15°C° 0.1 mm 1 mps 557 mmHg 75%
    06:00 +16°C° 0.1 mm 1 mps 557 mmHg 71%
    07:00 +16°C° 0.1 mm 2 mps 558 mmHg 67%
    08:00 +16°C° 0.1 mm 2 mps 559 mmHg 63%
    09:00 +18°C° 0 mm 2 mps 559 mmHg 56%
    10:00 +19°C° 0 mm 2 mps 560 mmHg 50%
    11:00 +20°C° 0 mm 2 mps 560 mmHg 43%
    12:00 +21°C° 0 mm 2 mps 560 mmHg 42%
    13:00 +23°C° 0 mm 2 mps 559 mmHg 42%
    14:00 +23°C° 0 mm 2 mps 559 mmHg 41%
    15:00 +23°C° 0 mm 2 mps 559 mmHg 44%
    16:00 +23°C° 0 mm 2 mps 558 mmHg 47%
    17:00 +21°C° 0 mm 3 mps 558 mmHg 50%
    18:00 +20°C° 0 mm 2 mps 557 mmHg 55%
    19:00 +19°C° 0 mm 2 mps 557 mmHg 61%
    20:00 +18°C° 0 mm 2 mps 557 mmHg 66%
    21:00 +17°C° 0 mm 2 mps 557 mmHg 67%
    22:00 +18°C° 0 mm 1 mps 557 mmHg 69%
    23:00 +16°C° 0 mm 1 mps 557 mmHg 70%

    25 September, Wednesday

    Time Temperature Precipitation Wind Pressure Humidity
    00:00 +16°C° 0 mm 1 mps 557 mmHg 72%
    01:00 +16°C° 0 mm 1 mps 557 mmHg 74%
    02:00 +15°C° 0 mm 1 mps 556 mmHg 75%
    03:00 +15°C° 0 mm 1 mps 556 mmHg 76%
    04:00 +15°C° 0 mm 1 mps 556 mmHg 77%
    05:00 +14°C° 0 mm 1 mps 556 mmHg 78%
    06:00 +15°C° 0 mm 1 mps 556 mmHg 75%
    07:00 +15°C° 0 mm 1 mps 557 mmHg 73%
    08:00 +16°C° 0 mm 1 mps 557 mmHg 70%
    09:00 +18°C° 0 mm 1 mps 558 mmHg 64%
    10:00 +20°C° 0 mm 1 mps 558 mmHg 59%
    11:00 +21°C° 0 mm 1 mps 559 mmHg 54%
    12:00 +21°C° 0.3 mm 2 mps 558 mmHg 53%
    13:00 +21°C° 0.3 mm 2 mps 558 mmHg 53%
    14:00 +22°C° 0.3 mm 3 mps 557 mmHg 53%
    15:00 +21°C° 0.1 mm 3 mps 557 mmHg 54%
    16:00 +21°C° 0.1 mm 3 mps 556 mmHg 56%
    17:00 +20°C° 0.1 mm 3 mps 556 mmHg 58%
    18:00 +19°C° 0.4 mm 3 mps 556 mmHg 62%
    19:00 +18°C° 0.4 mm 2 mps 556 mmHg 66%
    20:00 +16°C° 0.4 mm 2 mps 556 mmHg 70%
    21:00 +16°C° 0 mm 2 mps 556 mmHg 71%
    22:00 +16°C° 0 mm 2 mps 556 mmHg 72%
    23:00 +16°C° 0 mm 2 mps 556 mmHg 72%
    Show more